Retour au catalogue

COSMOS 2491 DEB

ActifPO
NORAD 57567·DEBRIS·🇷🇺 Russia

Lancé Dec 25, 2013 depuis Plesetsk Cosmodrome

Loading…

Prochains Passages (prochaines 24 heures)

TLE

FraisSource: Space-Track

Époque: Sep 12, 2026, 05:54 UTC

1 57567U 13076BE  26255.24627560  .00001719  00000-0  98107-2 0  9994
2 57567  82.4700  86.2117 0070517  11.8664 348.4066 12.59585257153294

Suivez COSMOS 2491 DEB en temps réel avec AllMySat

Download on the App Store